contact:dominique.lefevre@mio.osupytheas.fr, maurice.libes@osupytheas.fr, didier.mallarino@osupytheas.fr
Project:EMSO http://www.emso-fr.org/EMSO-France
Depth: 2436.0 m
Title:EMSO Ligure Ouest : Data MII capteur AQUADOPP
Date,Latitude,Longitude,X_East,Y_North,Z_Up,Amplitude_X,Amplitude_Y,Amplitude_Z,Batterie,SoundSpeed,Heading,Pitch,Roll,Pressure,TIS,Speed,Direction
, degrees North, degrees East, m.s-1, m.s-1,m.s-1, 1, 1, 1, Volt, m.s-1, degree, degree, degree, dbar, degree_C, m.s-1, degree
2020-06-24T00:04:03,42.805,6.029,0.0,-0.02,0.006,108.0,108.0,103.0,13.3,1505.2,325.5,-0.8,1.8,2470.438,13.3,0.02,180.0
2020-06-24T00:07:03,42.805,6.029,-0.004,-0.033,-0.013,110.0,109.0,105.0,13.4,1505.3,327.0,-0.7,1.8,2470.418,13.31,0.033,186.9
2020-06-24T00:10:03,42.805,6.029,-0.022,-0.02,-0.005,109.0,109.0,105.0,13.3,1505.3,325.4,-0.7,1.8,2470.458,13.32,0.029,227.7
2020-06-24T00:13:03,42.805,6.029,0.006,-0.04,-0.016,110.0,108.0,105.0,13.4,1505.3,326.9,-0.7,1.8,2470.427,13.32,0.04,171.5
2020-06-24T00:16:03,42.805,6.029,-0.019,-0.035,-0.005,108.0,109.0,106.0,13.3,1505.3,326.2,-0.7,1.9,2470.419,13.32,0.039,208.5
2020-06-24T00:19:03,42.805,6.029,0.007,-0.032,0.013,109.0,110.0,105.0,13.3,1505.3,326.8,-0.7,1.8,2470.428,13.32,0.032,167.7
2020-06-24T00:22:03,42.805,6.029,-0.016,-0.047,0.023,109.0,108.0,105.0,13.3,1505.3,326.7,-0.7,1.9,2470.409,13.32,0.049,198.8
2020-06-24T00:25:03,42.805,6.029,-0.02,-0.045,0.031,109.0,107.0,104.0,13.4,1505.3,326.4,-0.7,1.9,2470.423,13.32,0.049,204.0
2020-06-24T00:28:03,42.805,6.029,-0.017,-0.049,-0.016,108.0,108.0,105.0,13.3,1505.3,326.9,-0.7,1.8,2470.346,13.32,0.051,199.1
2020-06-24T00:31:03,42.805,6.029,-0.017,-0.041,-0.018,108.0,108.0,104.0,13.4,1505.3,324.4,-0.7,1.8,2470.404,13.32,0.044,202.5
2020-06-24T00:34:03,42.805,6.029,-0.012,-0.058,-0.055,108.0,109.0,105.0,13.4,1505.3,326.7,-0.7,1.8,2470.424,13.32,0.059,191.7
2020-06-24T00:37:03,42.805,6.029,-0.001,-0.026,0.002,109.0,109.0,104.0,13.4,1505.3,325.2,-0.7,1.8,2470.411,13.32,0.026,182.2
2020-06-24T00:43:03,42.805,6.029,0.002,-0.052,0.002,108.0,107.0,104.0,13.4,1505.2,323.0,-0.7,1.8,2470.454,13.3,0.052,177.8
2020-06-24T00:46:03,42.805,6.029,-0.025,-0.029,-0.018,108.0,108.0,104.0,13.4,1505.3,328.0,-0.7,1.8,2470.418,13.31,0.038,220.8
2020-06-24T00:49:03,42.805,6.029,-0.029,-0.026,-0.035,108.0,107.0,103.0,13.4,1505.3,324.5,-0.7,1.8,2470.442,13.32,0.038,228.1
2020-06-24T00:52:03,42.805,6.029,0.002,-0.044,-0.01,110.0,109.0,104.0,13.4,1505.3,326.3,-0.7,1.8,2470.392,13.32,0.044,177.4
2020-06-24T00:55:03,42.805,6.029,-0.004,-0.042,0.018,109.0,108.0,105.0,13.4,1505.3,325.4,-0.7,1.8,2470.435,13.32,0.042,185.4
2020-06-24T00:58:03,42.805,6.029,-0.013,-0.042,-0.004,107.0,109.0,104.0,13.4,1505.3,323.9,-0.7,1.8,2470.435,13.32,0.043,197.2
2020-06-24T01:04:03,42.805,6.029,-0.007,-0.025,0.013,109.0,109.0,105.0,13.4,1505.2,327.0,-0.7,1.8,2470.409,13.3,0.025,195.6
2020-06-24T01:07:03,42.805,6.029,-0.016,-0.028,-0.011,108.0,108.0,103.0,13.4,1505.3,328.0,-0.7,1.8,2470.43,13.31,0.032,209.7
2020-06-24T01:10:03,42.805,6.029,-0.004,-0.026,-0.008,108.0,109.0,103.0,13.4,1505.3,326.1,-0.7,1.8,2470.392,13.32,0.026,188.7
2020-06-24T01:13:03,42.805,6.029,-0.007,-0.025,0.0,107.0,109.0,103.0,13.4,1505.3,327.2,-0.7,1.9,2470.429,13.32,0.025,195.6
2020-06-24T01:16:03,42.805,6.029,-0.007,-0.053,0.017,108.0,108.0,104.0,13.4,1505.3,325.7,-0.7,1.8,2470.382,13.32,0.053,187.5
2020-06-24T01:19:03,42.805,6.029,0.0,-0.035,-0.011,108.0,108.0,104.0,13.4,1505.3,324.4,-0.7,1.9,2470.419,13.32,0.035,180.0
2020-06-24T01:22:03,42.805,6.029,-0.009,-0.038,-0.006,108.0,108.0,105.0,13.4,1505.3,327.4,-0.7,1.8,2470.379,13.32,0.039,193.3
2020-06-24T01:25:03,42.805,6.029,-0.009,-0.039,-0.035,106.0,108.0,103.0,13.3,1505.3,327.9,-0.7,1.8,2470.384,13.32,0.04,193.0
2020-06-24T01:28:03,42.805,6.029,-0.031,-0.029,-0.012,107.0,108.0,103.0,13.4,1505.3,327.6,-0.7,1.8,2470.401,13.32,0.042,226.9
2020-06-24T01:31:03,42.805,6.029,0.02,-0.025,-0.007,108.0,108.0,105.0,13.4,1505.3,327.5,-0.7,1.8,2470.413,13.32,0.032,141.3
2020-06-24T01:34:03,42.805,6.029,-0.012,-0.034,0.002,107.0,108.0,102.0,13.4,1505.3,326.7,-0.7,1.8,2470.4,13.32,0.036,199.4
2020-06-24T01:37:03,42.805,6.029,-0.026,-0.042,-0.006,108.0,108.0,104.0,13.3,1505.3,328.1,-0.7,1.9,2470.348,13.32,0.049,211.8
2020-06-24T01:40:03,42.805,6.029,0.001,-0.017,-0.025,107.0,109.0,104.0,13.4,1505.3,322.9,-0.7,1.8,2470.39,13.32,0.017,176.6
2020-06-24T01:43:03,42.805,6.029,-0.016,-0.07,0.019,108.0,108.0,103.0,13.4,1505.3,325.9,-0.7,1.8,2470.391,13.32,0.071,192.9
2020-06-24T01:46:03,42.805,6.029,0.002,-0.029,-0.003,108.0,108.0,104.0,13.4,1505.3,324.7,-0.7,1.8,2470.406,13.32,0.029,176.1
2020-06-24T01:49:03,42.805,6.029,-0.008,-0.044,0.013,110.0,110.0,102.0,13.4,1505.3,328.4,-0.7,1.8,2470.353,13.32,0.044,190.3
2020-06-24T01:52:03,42.805,6.029,-0.023,-0.038,-0.004,109.0,108.0,103.0,13.3,1505.3,327.6,-0.7,1.8,2470.396,13.32,0.044,211.2
2020-06-24T01:55:03,42.805,6.029,0.0,-0.024,0.014,106.0,108.0,104.0,13.4,1505.3,326.5,-0.7,1.8,2470.334,13.33,0.024,180.0
2020-06-24T01:58:03,42.805,6.029,-0.008,-0.027,0.002,107.0,107.0,103.0,13.4,1505.3,323.4,-0.7,1.8,2470.375,13.33,0.028,196.5
2020-06-24T02:04:03,42.805,6.029,-0.02,-0.017,-0.011,109.0,109.0,102.0,13.4,1505.2,326.1,-0.7,1.8,2470.37,13.3,0.026,229.6
2020-06-24T02:07:03,42.805,6.029,0.024,-0.038,0.03,108.0,108.0,103.0,13.3,1505.3,325.9,-0.7,1.8,2470.373,13.31,0.044,147.7
2020-06-24T02:10:03,42.805,6.029,0.008,-0.027,0.031,108.0,108.0,103.0,13.4,1505.3,326.8,-0.7,1.8,2470.363,13.32,0.028,163.5
2020-06-24T02:13:03,42.805,6.029,0.012,-0.059,0.018,107.0,108.0,104.0,13.4,1505.3,325.5,-0.7,1.8,2470.345,13.32,0.06,168.5
2020-06-24T02:16:03,42.805,6.029,0.013,-0.035,-0.029,105.0,108.0,102.0,13.3,1505.3,323.2,-0.7,1.8,2470.385,13.32,0.037,159.6
2020-06-24T02:19:03,42.805,6.029,0.001,-0.034,0.008,106.0,108.0,103.0,13.3,1505.3,324.6,-0.7,1.8,2470.348,13.32,0.034,178.3
2020-06-24T02:22:03,42.805,6.029,0.0,-0.043,0.002,107.0,108.0,103.0,13.4,1505.3,322.8,-0.7,1.8,2470.391,13.32,0.043,180.0
2020-06-24T02:25:03,42.805,6.029,0.01,-0.027,0.001,107.0,108.0,103.0,13.4,1505.3,325.2,-0.7,1.8,2470.351,13.32,0.028,159.7
2020-06-24T02:28:03,42.805,6.029,0.004,-0.035,0.002,108.0,108.0,102.0,13.4,1505.3,325.2,-0.7,1.8,2470.365,13.32,0.035,173.5
2020-06-24T02:31:03,42.805,6.029,-0.009,-0.031,0.004,108.0,108.0,103.0,13.3,1505.3,328.1,-0.7,1.8,2470.356,13.33,0.032,196.2
2020-06-24T02:34:03,42.805,6.029,-0.011,-0.02,0.001,108.0,109.0,104.0,13.4,1505.3,327.5,-0.7,1.8,2470.355,13.33,0.022,208.8
2020-06-24T02:37:03,42.805,6.029,0.002,-0.039,0.008,107.0,109.0,104.0,13.3,1505.3,327.1,-0.7,1.8,2470.359,13.33,0.039,177.1
2020-06-24T02:40:03,42.805,6.029,0.006,-0.032,0.028,107.0,109.0,103.0,13.3,1505.3,325.7,-0.7,1.8,2470.313,13.33,0.032,169.4
2020-06-24T02:43:03,42.805,6.029,-0.004,-0.033,-0.009,107.0,107.0,104.0,13.3,1505.3,326.2,-0.7,1.8,2470.299,13.33,0.033,186.9
2020-06-24T02:46:03,42.805,6.029,0.01,-0.021,0.009,109.0,108.0,103.0,13.4,1505.3,324.8,-0.7,1.8,2470.322,13.33,0.023,154.5
2020-06-24T02:49:03,42.805,6.029,-0.019,-0.046,-0.042,108.0,109.0,104.0,13.4,1505.3,325.7,-0.7,1.8,2470.328,13.33,0.049,202.4
2020-06-24T02:52:03,42.805,6.029,-0.024,-0.038,-0.028,108.0,109.0,104.0,13.4,1505.3,327.3,-0.7,1.8,2470.288,13.33,0.044,212.3
2020-06-24T02:55:03,42.805,6.029,-0.044,-0.029,-0.04,107.0,110.0,103.0,13.3,1505.3,327.0,-0.7,1.8,2470.35,13.33,0.052,236.6
2020-06-24T02:58:03,42.805,6.029,-0.043,-0.01,-0.062,106.0,108.0,104.0,13.4,1505.3,326.8,-0.7,1.8,2470.316,13.33,0.044,256.9
2020-06-24T03:04:03,42.805,6.029,0.025,-0.04,-0.008,108.0,109.0,103.0,13.4,1505.3,325.1,-0.7,1.8,2470.318,13.31,0.047,148.0
2020-06-24T03:07:03,42.805,6.029,-0.013,-0.015,0.02,107.0,110.0,104.0,13.4,1505.3,323.3,-0.7,1.8,2470.346,13.31,0.019,220.9
2020-06-24T03:10:03,42.805,6.029,-0.016,-0.003,-0.024,108.0,111.0,104.0,13.3,1505.3,326.7,-0.7,1.8,2470.382,13.32,0.016,259.4
2020-06-24T03:13:03,42.805,6.029,-0.013,-0.026,-0.03,108.0,110.0,103.0,13.3,1505.3,323.3,-0.7,1.8,2470.347,13.32,0.029,206.6
2020-06-24T03:16:03,42.805,6.029,-0.005,-0.029,-0.026,108.0,109.0,103.0,13.4,1505.3,323.1,-0.7,1.8,2470.314,13.32,0.029,189.8
2020-06-24T03:19:03,42.805,6.029,-0.025,-0.055,-0.074,106.0,110.0,102.0,13.3,1505.3,327.4,-0.7,1.8,2470.334,13.32,0.06,204.4
2020-06-24T03:22:03,42.805,6.029,0.0,-0.022,0.027,108.0,109.0,103.0,13.4,1505.3,327.8,-0.7,1.8,2470.345,13.32,0.022,180.0
2020-06-24T03:25:03,42.805,6.029,0.01,-0.026,-0.031,107.0,110.0,104.0,13.4,1505.3,325.6,-0.7,1.8,2470.341,13.32,0.027,159.0
2020-06-24T03:28:03,42.805,6.029,-0.001,-0.016,0.009,107.0,109.0,104.0,13.4,1505.3,326.5,-0.7,1.9,2470.289,13.33,0.016,183.6
2020-06-24T03:31:03,42.805,6.029,0.005,-0.039,0.0,107.0,110.0,102.0,13.3,1505.3,323.9,-0.7,1.8,2470.324,13.33,0.039,172.7
2020-06-24T03:34:03,42.805,6.029,-0.009,-0.037,-0.045,107.0,109.0,102.0,13.4,1505.3,326.5,-0.7,1.8,2470.303,13.33,0.038,193.7
2020-06-24T03:37:03,42.805,6.029,0.003,-0.03,0.007,106.0,109.0,102.0,13.3,1505.3,323.1,-0.7,1.9,2470.323,13.33,0.03,174.3
2020-06-24T03:40:03,42.805,6.029,-0.012,-0.024,-0.025,107.0,110.0,103.0,13.3,1505.3,324.2,-0.7,1.8,2470.324,13.32,0.026,206.6
2020-06-24T03:43:03,42.805,6.029,-0.027,-0.046,-0.02,105.0,109.0,103.0,13.4,1505.3,323.3,-0.7,1.8,2470.31,13.33,0.053,210.4
2020-06-24T03:46:03,42.805,6.029,-0.001,-0.043,-0.009,107.0,111.0,104.0,13.4,1505.3,324.2,-0.7,1.8,2470.3,13.33,0.043,181.3
2020-06-24T03:49:03,42.805,6.029,-0.005,-0.037,-0.021,108.0,108.0,103.0,13.3,1505.3,326.7,-0.7,1.8,2470.277,13.33,0.037,187.7
2020-06-24T03:52:03,42.805,6.029,-0.026,-0.031,-0.06,107.0,111.0,102.0,13.3,1505.3,325.0,-0.7,1.8,2470.267,13.33,0.04,220.0
2020-06-24T03:55:03,42.805,6.029,-0.002,-0.027,-0.006,106.0,110.0,103.0,13.4,1505.3,324.6,-0.7,1.9,2470.276,13.33,0.027,184.2
2020-06-24T03:58:03,42.805,6.029,0.008,-0.039,-0.009,107.0,110.0,103.0,13.4,1505.3,328.6,-0.7,1.8,2470.293,13.33,0.039,168.4
2020-06-24T04:04:03,42.805,6.029,0.004,-0.039,-0.026,107.0,109.0,103.0,13.3,1505.3,326.8,-0.8,1.8,2470.338,13.31,0.039,174.1
2020-06-24T04:07:02,42.805,6.029,0.012,-0.017,-0.023,107.0,110.0,104.0,13.4,1505.3,327.7,-0.7,1.9,2470.329,13.31,0.02,144.8
2020-06-24T04:10:03,42.805,6.029,0.001,-0.019,-0.007,108.0,108.0,104.0,13.3,1505.3,326.4,-0.7,1.8,2470.327,13.32,0.019,177.0
2020-06-24T04:13:03,42.805,6.029,0.014,-0.03,-0.012,107.0,109.0,104.0,13.3,1505.3,324.9,-0.8,1.8,2470.321,13.32,0.033,155.0
2020-06-24T04:16:03,42.805,6.029,0.031,-0.031,0.0,107.0,108.0,103.0,13.4,1505.3,325.0,-0.7,1.8,2470.315,13.32,0.043,135.0
2020-06-24T04:19:03,42.805,6.029,0.003,-0.034,-0.035,108.0,109.0,103.0,13.3,1505.3,325.7,-0.7,1.8,2470.318,13.32,0.034,175.0
2020-06-24T04:22:03,42.805,6.029,-0.01,-0.027,0.001,107.0,108.0,103.0,13.4,1505.3,324.2,-0.7,1.8,2470.266,13.32,0.028,200.3
2020-06-24T04:25:03,42.805,6.029,-0.014,-0.027,-0.031,107.0,109.0,102.0,13.4,1505.3,326.6,-0.7,1.8,2470.281,13.33,0.03,207.4
2020-06-24T04:28:03,42.805,6.029,0.008,-0.033,-0.005,106.0,110.0,103.0,13.4,1505.3,323.9,-0.7,1.8,2470.306,13.33,0.033,166.4
2020-06-24T04:31:03,42.805,6.029,-0.027,-0.032,-0.045,108.0,111.0,102.0,13.3,1505.3,327.3,-0.7,1.8,2470.288,13.33,0.041,220.2
2020-06-24T04:34:03,42.805,6.029,0.008,-0.037,0.014,107.0,108.0,102.0,13.4,1505.3,327.8,-0.7,1.8,2470.309,13.33,0.037,167.8
2020-06-24T04:37:03,42.805,6.029,0.024,-0.012,0.017,107.0,110.0,104.0,13.4,1505.3,323.7,-0.7,1.8,2470.337,13.33,0.026,116.6
2020-06-24T04:40:03,42.805,6.029,0.002,-0.035,0.008,106.0,109.0,104.0,13.4,1505.3,325.9,-0.7,1.8,2470.314,13.33,0.035,176.7
2020-06-24T04:43:03,42.805,6.029,-0.024,-0.03,0.025,108.0,107.0,104.0,13.4,1505.3,327.8,-0.7,1.8,2470.32,13.33,0.038,218.7
2020-06-24T04:46:03,42.805,6.029,0.006,-0.02,-0.003,107.0,110.0,103.0,13.4,1505.3,324.8,-0.7,1.8,2470.335,13.33,0.02,163.3
2020-06-24T04:49:03,42.805,6.029,-0.004,-0.015,0.0,107.0,109.0,103.0,13.3,1505.3,325.8,-0.7,1.8,2470.317,13.33,0.015,194.9
2020-06-24T04:52:03,42.805,6.029,0.025,-0.028,0.018,107.0,110.0,103.0,13.4,1505.3,325.2,-0.7,1.8,2470.309,13.33,0.037,138.2
2020-06-24T04:55:03,42.805,6.029,0.007,-0.005,0.0,105.0,109.0,104.0,13.4,1505.3,327.3,-0.7,1.8,2470.312,13.33,0.008,125.5
2020-06-24T04:58:03,42.805,6.029,0.0,-0.033,-0.003,105.0,109.0,104.0,13.3,1505.3,324.7,-0.7,1.8,2470.297,13.33,0.033,180.0
2020-06-24T05:04:03,42.805,6.029,-0.019,-0.019,-0.019,108.0,110.0,105.0,13.3,1505.3,325.0,-0.7,1.8,2470.324,13.31,0.026,225.0
2020-06-24T05:07:03,42.805,6.029,-0.051,-0.032,-0.026,107.0,109.0,103.0,13.3,1505.3,324.8,-0.7,1.9,2470.35,13.31,0.06,237.9
2020-06-24T05:10:03,42.805,6.029,-0.047,-0.025,-0.036,108.0,110.0,104.0,13.4,1505.3,326.8,-0.7,1.8,2470.362,13.32,0.053,242.0
2020-06-24T05:13:03,42.805,6.029,-0.017,-0.026,-0.011,107.0,110.0,103.0,13.4,1505.3,327.6,-0.7,1.8,2470.361,13.32,0.031,213.2
2020-06-24T05:16:03,42.805,6.029,-0.016,-0.026,-0.032,107.0,109.0,104.0,13.4,1505.3,324.2,-0.7,1.8,2470.346,13.32,0.03,211.6
2020-06-24T05:19:03,42.805,6.029,0.006,-0.027,-0.004,107.0,109.0,104.0,13.3,1505.3,323.8,-0.7,1.8,2470.322,13.32,0.027,167.5
2020-06-24T05:22:03,42.805,6.029,0.023,-0.038,0.016,107.0,109.0,104.0,13.3,1505.3,325.4,-0.7,1.8,2470.347,13.32,0.044,148.8
2020-06-24T05:25:03,42.805,6.029,-0.029,-0.021,-0.032,107.0,109.0,103.0,13.3,1505.3,323.5,-0.7,1.8,2470.322,13.32,0.035,234.1
2020-06-24T05:28:03,42.805,6.029,-0.009,-0.016,-0.027,105.0,110.0,102.0,13.4,1505.3,327.4,-0.7,1.8,2470.362,13.32,0.018,209.4
2020-06-24T05:31:03,42.805,6.029,-0.012,-0.029,-0.015,106.0,108.0,103.0,13.4,1505.3,324.7,-0.7,1.8,2470.309,13.33,0.031,202.5
2020-06-24T05:34:03,42.805,6.029,-0.001,-0.023,-0.024,106.0,109.0,103.0,13.4,1505.3,326.6,-0.7,1.8,2470.346,13.33,0.023,182.5
2020-06-24T05:37:03,42.805,6.029,0.017,-0.008,0.02,106.0,108.0,103.0,13.3,1505.3,327.3,-0.7,1.8,2470.313,13.33,0.018,115.2
2020-06-24T05:40:03,42.805,6.029,-0.007,-0.022,-0.01,108.0,109.0,103.0,13.4,1505.3,325.9,-0.7,1.8,2470.32,13.33,0.023,197.6
2020-06-24T05:43:03,42.805,6.029,-0.021,-0.022,-0.008,105.0,108.0,103.0,13.4,1505.3,323.0,-0.7,1.8,2470.292,13.33,0.03,223.7
2020-06-24T05:46:03,42.805,6.029,-0.023,-0.025,-0.035,107.0,109.0,102.0,13.4,1505.3,325.1,-0.7,1.8,2470.331,13.33,0.033,222.6
2020-06-24T05:49:03,42.805,6.029,-0.01,-0.026,-0.029,107.0,110.0,103.0,13.4,1505.3,323.7,-0.7,1.8,2470.304,13.33,0.027,201.0
2020-06-24T05:52:03,42.805,6.029,-0.015,-0.041,0.029,108.0,109.0,104.0,13.3,1505.3,326.6,-0.7,1.8,2470.331,13.33,0.043,200.1
2020-06-24T05:58:03,42.805,6.029,-0.021,-0.033,-0.03,108.0,110.0,103.0,13.4,1505.3,326.3,-0.7,1.8,2470.351,13.31,0.039,212.5
2020-06-24T06:04:03,42.805,6.029,-0.018,-0.018,0.014,107.0,109.0,103.0,13.3,1505.2,324.5,-0.7,1.8,2470.382,13.3,0.025,225.0
2020-06-24T06:07:03,42.805,6.029,0.022,-0.031,0.002,106.0,110.0,103.0,13.3,1505.3,322.9,-0.7,1.8,2470.398,13.31,0.038,144.6
2020-06-24T06:10:03,42.805,6.029,-0.024,-0.02,-0.003,106.0,109.0,102.0,13.3,1505.3,323.6,-0.7,1.8,2470.408,13.31,0.031,230.2
2020-06-24T06:13:03,42.805,6.029,-0.036,-0.023,-0.031,107.0,110.0,104.0,13.4,1505.3,325.6,-0.7,1.9,2470.416,13.32,0.042,237.4
2020-06-24T06:16:03,42.805,6.029,0.019,-0.024,-0.014,107.0,109.0,103.0,13.4,1505.3,326.6,-0.7,1.8,2470.393,13.32,0.03,141.6
2020-06-24T06:19:03,42.805,6.029,-0.001,-0.008,0.007,107.0,109.0,103.0,13.4,1505.3,325.9,-0.7,1.8,2470.388,13.32,0.008,187.1
2020-06-24T06:22:03,42.805,6.029,-0.029,-0.03,-0.048,107.0,109.0,104.0,13.4,1505.3,323.0,-0.7,1.8,2470.412,13.33,0.041,224.0
2020-06-24T06:25:03,42.805,6.029,-0.035,-0.018,-0.056,106.0,109.0,102.0,13.4,1505.3,326.2,-0.7,1.8,2470.371,13.33,0.039,242.8
2020-06-24T06:28:03,42.805,6.029,0.013,-0.044,0.02,107.0,109.0,103.0,13.4,1505.3,327.7,-0.7,1.9,2470.391,13.33,0.045,163.5
2020-06-24T06:31:03,42.805,6.029,-0.017,-0.032,-0.052,106.0,110.0,103.0,13.4,1505.3,323.5,-0.7,1.8,2470.344,13.33,0.036,208.0
2020-06-24T06:34:03,42.805,6.029,-0.029,-0.03,-0.027,107.0,110.0,103.0,13.4,1505.3,324.8,-0.7,1.8,2470.341,13.33,0.041,224.0
2020-06-24T06:37:03,42.805,6.029,0.006,-0.016,-0.026,106.0,110.0,102.0,13.4,1505.3,322.7,-0.7,1.8,2470.425,13.33,0.017,159.4
2020-06-24T06:40:03,42.805,6.029,-0.021,-0.024,-0.027,105.0,110.0,103.0,13.4,1505.3,324.2,-0.7,1.9,2470.356,13.33,0.031,221.2
2020-06-24T06:43:03,42.805,6.029,-0.029,-0.046,-0.045,107.0,110.0,103.0,13.4,1505.3,325.6,-0.7,1.9,2470.408,13.33,0.054,212.2
2020-06-24T06:46:03,42.805,6.029,-0.022,-0.048,-0.032,107.0,110.0,103.0,13.4,1505.3,325.2,-0.7,1.8,2470.339,13.33,0.052,204.6
2020-06-24T06:49:03,42.805,6.029,-0.004,-0.014,-0.03,108.0,110.0,104.0,13.4,1505.3,324.6,-0.7,1.8,2470.408,13.33,0.014,195.9
2020-06-24T06:52:03,42.805,6.029,0.012,-0.013,-0.022,107.0,110.0,104.0,13.4,1505.3,323.4,-0.7,1.8,2470.352,13.33,0.017,137.3
2020-06-24T06:55:03,42.805,6.029,0.019,-0.035,0.004,108.0,109.0,105.0,13.3,1505.3,326.5,-0.7,1.8,2470.361,13.33,0.039,151.5
2020-06-24T06:58:03,42.805,6.029,-0.03,-0.007,-0.005,107.0,111.0,103.0,13.4,1505.3,326.1,-0.7,1.9,2470.389,13.33,0.03,256.9
2020-06-24T07:04:03,42.805,6.029,0.01,-0.029,0.015,107.0,111.0,103.0,13.4,1505.3,326.7,-0.7,1.9,2470.435,13.31,0.03,161.0
2020-06-24T07:07:03,42.805,6.029,-0.005,-0.023,-0.018,106.0,110.0,103.0,13.4,1505.3,325.4,-0.7,1.8,2470.418,13.31,0.023,192.3
2020-06-24T07:10:03,42.805,6.029,-0.036,-0.02,-0.035,106.0,110.0,103.0,13.4,1505.3,325.5,-0.7,1.9,2470.395,13.32,0.041,240.9
2020-06-24T07:13:03,42.805,6.029,-0.027,-0.014,-0.063,107.0,111.0,102.0,13.4,1505.3,326.0,-0.7,1.8,2470.43,13.32,0.03,242.6
2020-06-24T07:16:03,42.805,6.029,-0.031,-0.033,-0.022,109.0,111.0,102.0,13.3,1505.3,323.6,-0.7,1.9,2470.413,13.32,0.045,223.2
2020-06-24T07:19:03,42.805,6.029,-0.026,-0.029,-0.046,107.0,111.0,104.0,13.4,1505.3,325.5,-0.7,1.8,2470.426,13.33,0.038,221.9
2020-06-24T07:22:03,42.805,6.029,0.0,-0.022,-0.016,108.0,111.0,104.0,13.4,1505.3,326.2,-0.8,1.8,2470.42,13.33,0.022,180.0
2020-06-24T07:25:03,42.805,6.029,-0.025,-0.026,-0.034,108.0,110.0,105.0,13.4,1505.3,324.9,-0.7,1.8,2470.384,13.33,0.036,223.9
2020-06-24T07:28:03,42.805,6.029,-0.002,-0.028,-0.003,107.0,110.0,103.0,13.3,1505.3,326.4,-0.7,1.9,2470.39,13.33,0.028,184.1
2020-06-24T07:31:03,42.805,6.029,0.011,-0.024,0.009,107.0,110.0,104.0,13.4,1505.3,326.8,-0.7,1.9,2470.412,13.33,0.026,155.4
2020-06-24T07:34:03,42.805,6.029,0.01,-0.004,-0.01,108.0,110.0,104.0,13.4,1505.3,323.8,-0.7,1.9,2470.394,13.33,0.01,111.8
2020-06-24T07:37:03,42.805,6.029,0.022,-0.027,0.02,107.0,110.0,103.0,13.4,1505.3,325.9,-0.7,1.9,2470.398,13.33,0.034,140.8
2020-06-24T07:40:03,42.805,6.029,0.009,-0.007,0.021,107.0,111.0,103.0,13.4,1505.3,325.3,-0.7,1.8,2470.424,13.33,0.011,127.9
2020-06-24T07:43:03,42.805,6.029,-0.002,-0.021,-0.009,106.0,109.0,104.0,13.4,1505.3,325.4,-0.7,1.8,2470.42,13.33,0.021,185.4
2020-06-24T07:46:03,42.805,6.029,-0.013,-0.022,-0.056,108.0,109.0,103.0,13.3,1505.3,325.0,-0.7,1.8,2470.404,13.33,0.025,210.6
2020-06-24T07:49:03,42.805,6.029,0.027,-0.001,0.042,107.0,109.0,102.0,13.3,1505.3,324.3,-0.7,1.9,2470.414,13.33,0.027,92.1
2020-06-24T07:52:03,42.805,6.029,0.011,-0.034,-0.01,106.0,108.0,103.0,13.4,1505.3,324.5,-0.7,1.8,2470.402,13.33,0.035,162.1
2020-06-24T07:55:03,42.805,6.029,0.032,-0.015,0.026,106.0,108.0,104.0,13.3,1505.3,325.2,-0.7,1.8,2470.402,13.33,0.035,115.1
2020-06-24T07:58:03,42.805,6.029,0.028,-0.02,0.02,108.0,108.0,103.0,13.4,1505.3,324.7,-0.7,1.8,2470.47,13.33,0.034,125.5
2020-06-24T08:04:03,42.805,6.029,-0.022,-0.029,-0.043,108.0,108.0,102.0,13.3,1505.3,324.4,-0.7,1.8,2470.486,13.31,0.036,217.2
2020-06-24T08:07:03,42.805,6.029,0.003,-0.021,-0.02,106.0,107.0,103.0,13.3,1505.3,325.2,-0.8,1.8,2470.436,13.31,0.021,171.9
2020-06-24T08:10:03,42.805,6.029,-0.013,-0.035,-0.021,108.0,110.0,103.0,13.3,1505.3,324.5,-0.7,1.8,2470.454,13.32,0.037,200.4
2020-06-24T08:13:03,42.805,6.029,0.009,-0.036,-0.005,107.0,109.0,103.0,13.3,1505.3,323.0,-0.7,1.8,2470.455,13.32,0.037,166.0
2020-06-24T08:16:03,42.805,6.029,0.003,-0.051,-0.032,108.0,108.0,104.0,13.3,1505.3,324.7,-0.7,1.8,2470.401,13.32,0.051,176.6
2020-06-24T08:19:03,42.805,6.029,-0.006,-0.033,-0.019,107.0,107.0,103.0,13.4,1505.3,326.6,-0.7,1.8,2470.453,13.32,0.033,190.3
2020-06-24T08:22:03,42.805,6.029,0.003,-0.034,-0.06,107.0,109.0,104.0,13.3,1505.3,324.2,-0.8,1.8,2470.417,13.32,0.034,175.0
2020-06-24T08:25:03,42.805,6.029,-0.007,-0.035,-0.035,106.0,108.0,103.0,13.4,1505.3,325.1,-0.7,1.9,2470.448,13.32,0.035,191.3
2020-06-24T08:28:03,42.805,6.029,-0.004,-0.007,0.0,107.0,110.0,102.0,13.4,1505.3,325.7,-0.7,1.8,2470.479,13.33,0.008,209.7
2020-06-24T08:31:03,42.805,6.029,0.005,-0.036,-0.009,108.0,110.0,103.0,13.4,1505.3,326.7,-0.7,1.8,2470.443,13.32,0.036,172.1
2020-06-24T08:34:03,42.805,6.029,0.023,-0.038,-0.001,108.0,109.0,103.0,13.3,1505.3,327.7,-0.7,1.8,2470.428,13.32,0.044,148.8
2020-06-24T08:37:03,42.805,6.029,-0.007,-0.035,0.001,107.0,107.0,104.0,13.3,1505.3,324.2,-0.7,1.8,2470.409,13.32,0.035,191.3
2020-06-24T08:40:03,42.805,6.029,0.0,-0.045,-0.006,107.0,108.0,104.0,13.3,1505.3,325.1,-0.7,1.8,2470.437,13.32,0.045,180.0
2020-06-24T08:43:03,42.805,6.029,0.007,-0.031,0.002,107.0,108.0,104.0,13.4,1505.3,324.4,-0.7,1.9,2470.387,13.32,0.031,167.3
2020-06-24T08:46:03,42.805,6.029,-0.02,-0.029,-0.026,107.0,109.0,103.0,13.3,1505.3,325.5,-0.7,1.8,2470.418,13.33,0.035,214.6
2020-06-24T08:49:03,42.805,6.029,-0.008,-0.035,-0.013,109.0,108.0,104.0,13.4,1505.3,325.2,-0.7,1.8,2470.411,13.33,0.035,192.9
2020-06-24T08:52:03,42.805,6.029,0.012,-0.023,0.022,109.0,108.0,103.0,13.4,1505.3,323.9,-0.7,1.9,2470.379,13.32,0.025,152.4
2020-06-24T08:55:03,42.805,6.029,-0.004,-0.038,0.009,107.0,109.0,104.0,13.4,1505.3,327.7,-0.7,1.8,2470.355,13.32,0.038,186.0
2020-06-24T08:58:03,42.805,6.029,-0.018,-0.046,0.0,108.0,109.0,103.0,13.3,1505.3,328.3,-0.7,1.8,2470.422,13.32,0.049,201.4
2020-06-24T09:04:03,42.805,6.029,-0.009,-0.031,0.019,108.0,109.0,104.0,13.4,1505.3,326.8,-0.7,1.8,2470.442,13.31,0.032,196.2
2020-06-24T09:07:03,42.805,6.029,0.011,-0.015,-0.017,108.0,110.0,103.0,13.3,1505.3,328.0,-0.7,1.8,2470.439,13.31,0.018,143.7
2020-06-24T09:10:03,42.805,6.029,0.005,-0.023,0.029,108.0,109.0,104.0,13.3,1505.3,327.7,-0.7,1.8,2470.44,13.32,0.023,167.7
2020-06-24T09:13:03,42.805,6.029,-0.017,-0.04,-0.009,108.0,110.0,104.0,13.4,1505.3,323.8,-0.7,1.8,2470.432,13.32,0.043,203.0
2020-06-24T09:16:03,42.805,6.029,0.028,-0.025,0.017,107.0,110.0,104.0,13.3,1505.3,326.5,-0.7,1.8,2470.369,13.32,0.037,131.8
2020-06-24T09:19:03,42.805,6.029,0.005,-0.027,0.006,108.0,111.0,104.0,13.4,1505.3,327.7,-0.7,1.8,2470.405,13.32,0.027,169.5
2020-06-24T09:22:03,42.805,6.029,-0.002,-0.038,-0.015,108.0,109.0,103.0,13.4,1505.3,324.5,-0.7,1.8,2470.42,13.32,0.038,183.0
2020-06-24T09:25:03,42.805,6.029,0.002,-0.011,-0.014,107.0,110.0,103.0,13.4,1505.3,324.2,-0.7,1.8,2470.421,13.32,0.011,169.7
2020-06-24T09:28:03,42.805,6.029,0.003,-0.029,0.001,107.0,109.0,104.0,13.4,1505.3,326.0,-0.7,1.8,2470.418,13.32,0.029,174.1
2020-06-24T09:31:03,42.805,6.029,-0.017,-0.03,-0.005,106.0,109.0,103.0,13.4,1505.3,326.1,-0.7,1.8,2470.421,13.32,0.034,209.5
2020-06-24T09:34:03,42.805,6.029,-0.005,-0.034,0.009,107.0,109.0,104.0,13.4,1505.3,326.9,-0.7,1.8,2470.429,13.32,0.034,188.4
2020-06-24T09:37:03,42.805,6.029,0.016,-0.036,0.026,108.0,110.0,103.0,13.4,1505.3,326.0,-0.7,1.8,2470.424,13.33,0.039,156.0
2020-06-24T09:40:03,42.805,6.029,-0.029,-0.031,-0.023,107.0,110.0,104.0,13.3,1505.3,323.3,-0.7,1.8,2470.424,13.33,0.042,223.1
2020-06-24T09:43:03,42.805,6.029,0.007,-0.024,0.007,109.0,110.0,104.0,13.4,1505.3,328.2,-0.7,1.8,2470.391,13.33,0.025,163.7
2020-06-24T09:46:03,42.805,6.029,-0.006,-0.026,-0.043,108.0,108.0,104.0,13.4,1505.3,324.0,-0.7,1.8,2470.363,13.33,0.026,193.0
2020-06-24T09:49:03,42.805,6.029,-0.003,-0.027,-0.007,107.0,111.0,104.0,13.4,1505.3,326.6,-0.7,1.8,2470.401,13.32,0.027,186.3
2020-06-24T09:52:03,42.805,6.029,-0.032,-0.023,-0.023,108.0,108.0,103.0,13.4,1505.3,325.3,-0.7,1.8,2470.357,13.32,0.039,234.3
2020-06-24T09:55:03,42.805,6.029,-0.05,-0.031,-0.059,106.0,109.0,102.0,13.4,1505.3,323.6,-0.7,1.9,2470.396,13.32,0.058,238.2
2020-06-24T09:58:03,42.805,6.029,0.013,-0.034,0.009,108.0,109.0,103.0,13.4,1505.3,327.7,-0.7,1.8,2470.378,13.32,0.036,159.1